Weather Roundup
Issued by NWS

Home | Current Version | Previous Version | Graphics & Text | Print | Product List | Glossary Off
Versions: 1 2 3 4 5 6 7 8 9 10 11 12 13 14 15 16 17 18 19 20 21 22 23 24 25 26 27 28 29 30 31 32 33 34 35 36 37 38 39 40 41 42 43 44 45 46 47 48 49 50

000
NZUS93 KARX 280710
HRRWXR

CURRENT HOURLY OBSERVATIONS ACROSS
MUCH OF THE UPPER MISSISSIPPI VALLEY
NATIONAL WEATHER SERVICE LA CROSSE WI
200 AM CDT SAT MAR 28 2015


...SOUTHEAST MINNESOTA...


CITY           SKY/WX    TMP DP  RH WIND       PRES   REMARKS
ROCHESTER      MOCLDY    19  11  70 S6        30.17R WCI  11
ROCHESTER/MAYO PTSUNNY   23  13  65 CALM      30.18R
WINONA         CLEAR     23  14  68 CALM      30.22S
AUSTIN         PTCLDY    21  16  79 CALM      30.16S
ALBERT LEA     CLOUDY    25  16  68 SE5       30.16S WCI  19
DODGE CENTER   PTCLDY    21  10  63 CALM      30.16S
PRESTON        PTCLDY    20  10  66 CALM      30.18R
OWATONNA       CLOUDY    23  10  58 SE6       30.16S WCI  16
FARIBAULT      CLOUDY    25  10  54 S5        30.17F WCI  19
$$

...ELSEWHERE IN MINNESOTA...


CITY           SKY/WX    TMP DP  RH WIND       PRES   REMARKS
MINNEAPOLIS    MOCLDY    25   8  48 SE6       30.19R WCI  18
INTNL FALLS    CLEAR     13  10  88 CALM      30.13S
DULUTH         CLEAR     19  12  74 E5        30.15S WCI  12
RED WING       CLOUDY    23  16  74 CALM      30.19S
REDWOOD FALLS  CLOUDY    30  25  81 SW5       30.15R WCI  25
MANKATO        CLOUDY    27  14  59 SE9       30.17R WCI  17
WORTHINGTON    CLOUDY    27  23  86 SE7       30.12S WCI  19
FAIRMONT       CLOUDY    28  19  69 SE9       30.15R WCI  20
$$

...SOUTHWEST WISCONSIN...


CITY           SKY/WX    TMP DP  RH WIND       PRES   REMARKS
LA CROSSE      CLEAR     22  13  68 CALM      30.21S
PRAIRIE DU CHI FAIR      18  11  75 CALM      30.22R
BOSCOBEL       CLEAR     17  12  80 CALM      30.23R
LONE ROCK      CLEAR     18  11  74 E6        30.22S WCI  10
PLATTEVILLE    CLEAR     24  13  64 NE3       30.20R
FORT MC COY    CLEAR     13  10  85 CALM      30.22S
CAMP DOUGLAS   CLEAR     13  13  99 E2        30.20R
VIROQUA        FAIR      24  11  59 CALM      30.17S
WIS DELLS      CLEAR     21   8  57 S3        30.20S
$$

...ELSEWHERE IN WISCONSIN...


CITY           SKY/WX    TMP DP  RH WIND       PRES   REMARKS
MILWAUKEE      PTCLDY    22  11  62 W5        30.23S WCI  16
MADISON        CLEAR     22  12  65 S5        30.21S WCI  16
GREEN BAY      CLEAR     21  15  78 NW3       30.25R
EAU CLAIRE     CLEAR     22  11  62 CALM      30.19S
BLACK RVR FLS  FAIR      11   7  83 CALM      30.20F
MEDFORD        CLEAR     14  10  85 CALM      30.17R
WAUSAU         CLEAR     17   9  70 E7        30.18R WCI   8
WIS RAPIDS     CLEAR     14   9  80 CALM      30.21R
MARSHFIELD     CLEAR     22  11  62 CALM      30.18R
RICE LAKE      CLEAR     21  16  79 CALM      30.19S
$$

...NORTHEAST IOWA...


CITY           SKY/WX    TMP DP  RH WIND       PRES   REMARKS
DECORAH        MOCLDY    19  10  68 CALM      30.18R
MASON CITY     CLOUDY    25  16  68 SE7       30.17S WCI  17
CHARLES CITY   CLOUDY    23  16  74 SE5       30.18S WCI  17
OELWEIN        MOCLDY    23  18  80 SE5       30.18S WCI  17
$$

...ELSEWHERE IN IOWA...


CITY           SKY/WX    TMP DP  RH WIND       PRES   REMARKS
DES MOINES     CLOUDY    34  11  38 SE8       30.15S WCI  27
IOWA CITY      CLEAR     26  13  57 E7        30.21S WCI  18
FORT DODGE     CLOUDY    30  18  59 E8        30.15R WCI  23
$$

...NORTHERN ILLINOIS...


CITY           SKY/WX    TMP DP  RH WIND       PRES   REMARKS
CHICAGO-OHARE  CLEAR     22  13  68 N5        30.22R WCI  16
CHICAGO-MIDWAY PTCLDY    26  12  55 NW6       30.23R WCI  19
MOLINE         PTCLDY    20  13  74 E3        30.21S
ROCKFORD       CLEAR     21  14  74 CALM      30.25S
PEORIA         PTCLDY    25  15  66 E8        30.23R WCI  16
$$

NOTE: "FAIR" INDICATES FEW OR NO CLOUDS BELOW 12,000 FEET WITH NO
SIGNIFICANT WEATHER AND/OR OBSTRUCTIONS TO VISIBILITY. WIND
SPEEDS ARE IN MILES-PER-HOUR.



USA.gov is the U.S. government's official web portal to all federal, state and local government web resources and services.